Torna al catalogo

STARLINK-3928

AttivoComunicazioniVLEO
NORAD 52606·PAYLOAD·🇺🇸 United States

Lanciato May 14, 2022 da Cape Canaveral Space Force Station

Loading…

Prossimi Passaggi (prossime 24 ore)

TLE

AggiornatoSource: CelesTrak SupGP

Epoca: Sep 14, 2026, 21:08 UTC

1 52606C 22052J   26257.88104167 -.00030102  00000+0 -14773-2 0  2575
2 52606  53.1611 145.8872 0001705  91.5590  67.4214 15.17596451    14

Traccia STARLINK-3928 in tempo reale con AllMySat

Download on the App Store